PWSweather.com
Personal Weather Stations
Station Observations
TARRYHILL
Tarrytown, NY 10591

Tarrytown, NY 10591

Lat: 41.05185, Lon: -73.85296

Elevation: 341

Station Type: Davis Vantage Vue

Latest ConditionsUpdated 3:10:17 AM EDT Saturday, May 23, 2015
Currently Today's Max Today's Min Today's Average
Temperature 50.3°F10.2°C 57.4°F14.1°C 50.3°F10.2°C 53.7°F12.1°C
Dew Point 29.7°F-1.3°C 37.5°F3.1°C 28.9°F-1.7°C 33.7°F0.9°C
Winds 3.1 mph WSW5.0 kmh WSW 5.3 mph NNE8.5 kmh NNE - 2.4 mph 3.9 kmh
Wind Gusts 8.0 mph12.9 kmh 10.0 mph16.1 kmh - -
Humidity 45% 51% 42% 47%
Pressure 30.24 in1024.0 mb 30.24 in1024.0 mb 30.15 in1021.0 mb -
Hour Temp Dew Point Humidity Winds Wind Gusts Pressure Precip Precip Rate Daily Precip Total
03:10 AM 50.3°F10.2°C 29.7°F-1.3°C 45% 3.1 mph WSW5.0 kmh WSW 8.0 mph12.9 kmh 30.24 in1024.0 mb - 0.00 in0.0 mm 0.00 in0.0 mm
03:00 AM 50.7°F10.4°C 29.5°F-1.4°C 44% 2.5 mph SW4.0 kmh SW 6.0 mph9.7 kmh 30.23 in1023.7 mb - 0.00 in0.0 mm 0.00 in0.0 mm
02:50 AM 51.0°F10.6°C 29.3°F-1.5°C 43% 0.8 mph SW1.3 kmh SW 3.0 mph4.8 kmh 30.22 in1023.4 mb - 0.00 in0.0 mm 0.00 in0.0 mm
02:40 AM 51.3°F10.7°C 28.9°F-1.7°C 42% 2.0 mph NNW3.2 kmh NNW 4.0 mph6.4 kmh 30.21 in1023.0 mb - 0.00 in0.0 mm 0.00 in0.0 mm
02:30 AM 51.6°F10.9°C 29.2°F-1.6°C 42% 3.5 mph WSW5.6 kmh WSW 6.0 mph9.7 kmh 30.21 in1023.0 mb - 0.00 in0.0 mm 0.00 in0.0 mm
02:20 AM 52.0°F11.1°C 29.6°F-1.3°C 42% 5.3 mph NNE8.5 kmh NNE 7.0 mph11.3 kmh 30.21 in1023.0 mb - 0.00 in0.0 mm 0.00 in0.0 mm
02:10 AM 52.3°F11.3°C 30.4°F-0.9°C 43% 4.0 mph W6.4 kmh W 7.0 mph11.3 kmh 30.21 in1023.0 mb - 0.00 in0.0 mm 0.00 in0.0 mm
02:00 AM 52.6°F11.4°C 32.4°F0.2°C 46% 1.7 mph W2.7 kmh W 5.0 mph8.0 kmh 30.21 in1023.0 mb - 0.00 in0.0 mm 0.00 in0.0 mm
01:50 AM 53.0°F11.7°C 35.3°F1.8°C 51% 1.8 mph WSW2.9 kmh WSW 5.0 mph8.0 kmh 30.21 in1023.0 mb - 0.00 in0.0 mm 0.00 in0.0 mm
01:40 AM 53.3°F11.8°C 34.6°F1.4°C 49% 1.7 mph W2.7 kmh W 3.0 mph4.8 kmh 30.20 in1022.7 mb - 0.00 in0.0 mm 0.00 in0.0 mm
01:30 AM 53.7°F12.1°C 34.4°F1.3°C 48% 3.0 mph E4.8 kmh E 5.0 mph8.0 kmh 30.20 in1022.7 mb - 0.00 in0.0 mm 0.00 in0.0 mm
01:20 AM 54.1°F12.3°C 35.4°F1.9°C 49% 2.8 mph E4.5 kmh E 5.0 mph8.0 kmh 30.19 in1022.4 mb - 0.00 in0.0 mm 0.00 in0.0 mm
01:10 AM 54.5°F12.5°C 35.7°F2.1°C 49% 1.7 mph NW2.7 kmh NW 5.0 mph8.0 kmh 30.18 in1022.0 mb - 0.00 in0.0 mm 0.00 in0.0 mm
01:00 AM 55.0°F12.8°C 36.7°F2.6°C 50% 1.1 mph N1.8 kmh N 1.0 mph1.6 kmh 30.18 in1022.0 mb - 0.00 in0.0 mm 0.00 in0.0 mm
12:50 AM 55.4°F13.0°C 37.1°F2.8°C 50% 2.1 mph SSW3.4 kmh SSW 5.0 mph8.0 kmh 30.17 in1021.7 mb - 0.00 in0.0 mm 0.00 in0.0 mm
12:40 AM 55.9°F13.3°C 37.5°F3.1°C 50% 1.5 mph E2.4 kmh E 5.0 mph8.0 kmh 30.16 in1021.3 mb - 0.00 in0.0 mm 0.00 in0.0 mm
12:30 AM 56.3°F13.5°C 37.4°F3.0°C 49% 3.0 mph WNW4.8 kmh WNW 6.0 mph9.7 kmh 30.16 in1021.3 mb - 0.00 in0.0 mm 0.00 in0.0 mm
12:20 AM 56.7°F13.7°C 37.2°F2.9°C 48% 2.1 mph N3.4 kmh N 6.0 mph9.7 kmh 30.15 in1021.0 mb - 0.00 in0.0 mm 0.00 in0.0 mm
12:10 AM 57.1°F13.9°C 36.5°F2.5°C 46% 2.0 mph E3.2 kmh E 2.0 mph3.2 kmh 30.15 in1021.0 mb - 0.00 in0.0 mm 0.00 in0.0 mm
12:00 AM 57.4°F14.1°C 36.8°F2.7°C 46% 2.1 mph SW3.4 kmh SW 10.0 mph16.1 kmh 30.15 in1021.0 mb - 0.00 in0.0 mm 0.00 in0.0 mm